星链-1305 (STARLINK-1305 )

导读

STARLINK-1305是美国太空探索技术公司星链计划的低轨卫星,于2020年3月18日发射。作为星链星座组网的组成单元,它主要服务于全球卫星互联网组网,可为偏远地区、海洋等场景提供互联网接入服务,助力星链完成全球覆盖,同时该卫星也是星链大规模组网进程中重要的一颗发射卫星。

基本信息
目录编号:
45377
目录名称:
STARLINK-1305
国际标识:
2020-019T
轨道中心:
EARTH
卫星名称:
星链-1305
卫星全名:
星链-1305 (STARLINK-1305 )
卫星状态:
在轨 (已飞行2368 天)
发射日期:
2020-03-18 UTC
国别 :
美国 (US)
星等 :
--
该卫星已列入 空间交会检测服务 Space Conjunction Data Service (SCDS) ,当前飞行风险评估等级: 无高风险
轨道信息
数据来源 国际轨道数据 AOE轨道数据
星历时间 2026-09-11T16:00:04+0800
4小时前
查看轨道信息
2026-09-10T17:00:00+0800
1天前
查看轨道信息
半长轴 6677.416km 6678.25km
偏心率 0.000633 0.0006871
轨道倾角 53.032° 53.031°
近地点辐角 30.386° 26.165°
升交点赤经 292.589° 297.479°
平近点角 347.745° 259.805°
近地点 295.052km 295.524km
远地点 303.506km 304.702km
周期 90.505分钟 90.522分钟
每日圈数 15.910732 15.907753
详细信息
固有亮度:
5
最大亮度:
2.5
卫星平台:
Starlink V1.0
覆盖范围:
全球
运营商:
太空探索技术公司
运营商所在国:
美国
制造商(研发单位):
太空探索技术公司
制造商所在国:
美国
使用方式:
暂无
卫星简介
星链(Starlink)计划是由太空探索技术公司(SpaceX)提出的一个巨型低轨卫星互联网星座项目,计划在2019年至2024年间在太空搭建由约1.2万颗卫星组成的“星链”网络,其中1584颗将部署在地球上空550千米处的近地轨道,并从2020年开始工作。该卫星仍在工作。
2D轨道图
3D轨道图
轨道高度分析图
轨道倾角分析图
轨道综合分析图
查看轨道综合分析图
与全量物体交会距离演化趋势
与全量物体交会风险概率演化趋势